BREEZE-M DEB (TANK), 42751

Orbit data source: Space-Track

BREEZE-M DEB (TANK), 42751 is space debris in HEO originally from a launch on Thu, 08 Jun 2017 UTC launched from the Tyuratam Missile And Space Complex (TTMTR). Debris objects in space refer to the collection of defunct objects orbiting the Earth. Examples of debris include non-operational satellites, rocket bodies, and fragments generated from explosions, collisions, or faulty payload assembly.

Loading next visibility...
Identifier
42751, 2017-032C
Orbit
HEO
Country
Flag of CISCIS
Related business
Manufacturer
Khrunichev
Mission
Spacecraft
Bus & Motor
BRIZ TANK, Unknown motor
Mass
~1,000 kg wet, 1,000 kg dry
Launch date (UTC)
2017-06-08 (8 years ago)
Launch vehicle
Unknown
Launch site
Tyuratam Missile And Space Complex (TTMTR)
Object type
Payload
Rocket body
Debris
Shape & HBR
Torus, 2.0 m
Radar Cross Section
8.218 m², Large (>1 m²)

Expand to show TLE details & history
Last TLE update: 9 hours ago

TLE from 9 hours ago
0 BREEZE-M DEB (TANK)
1 42751U 17032C   25260.93534474  .00005881  00000-0  11507-2 0  9994
2 42751  49.6812 177.5376 4552111  21.7439 352.6450  6.35801175188741
Epoch: 2025-09-17T22:26Z
TLE epoch observation values (Epoch: 2025-09-17T22:26:53.785Z)
Latitude
0.00011°
Longitude
-156.28687°
Altitude
477.892 km
Speed
9.16 km/s
True Right ascension
11h 50m 09s
True Declination
0° 00' 00"
Sunlit
Object was in daylight at epoch
Visualization orbit readout
Latitude
Unknown
Longitude
Unknown
Altitude
Unknown
Speed
Unknown
Apparent Right ascension
Unknown
Apparent Declination
Unknown
Sunlit
N/A
Visualization observer readout
Local Sidereal Time
23:53:44
Azimuth
Unknown
Elevation
Unknown
Doppler factor
Unknown
Orbital elements
Apogee altitude
11,533.562 km
Perigee altitude
327.484 km
Semi-major axis
12,308.66 km
Eccentricity
0.45521
Inclination
49.6812°
RAAN
177.5376°
Arg. of periapsis
21.7439°
True anomaly
338.26544°
Mean anomaly
352.645°
Eccentric anomaly
346.60112°
Mean motion
1.58938 °/min
Orbital period
226.5 mins
BSTAR
0.0011507
Loading maneuver chart data...
Computing Atmospheric mass density...
Loading historical data...
Loading historical data...
Loading historical data...
Loading historical data...
Loading historical data...
Loading historical data...
Loading historical data...
Other satellites on launch #32 in the year 2017 (2017-06-08 UTC)

Documentation

Showing up to 5 results
|